User: anonymous   Login
Location: Unspecified
(0.0000°N, 0.0000°E)
Time: 19:03:43
(UTC+00:00)
Language:

UNK - Orbit

View from above orbital plane
View from above orbital plane
View from above satellite
View from above satellite

Ground track
Ground track

The orbit data is extracted from the following two-line orbital elements,

1 27945U 03042G   17084.93557776 +.00000057 +00000-0 +19367-4 0  9997
2 27945 097.9288 229.6641 0012989 145.6531 214.5514 14.64720322720413
Epoch (UTC): 25 March 2017 22:27:13
Eccentricity: 0.0012989
inclination: 97.9288°
perigee height: 669 km
apogee height: 687 km
right ascension of ascending node: 229.6641°
argument of perigee: 145.6531°
revolutions per day: 14.64720322
mean anomaly at epoch: 214.5514°
orbit number at epoch: 72041

The dashed part of the orbit path shows where the satellite is in the earth's shadow,  

DLR